Mobridge, SD

6:21 AM CST on November 18, 2017 (GMT -0600)
Mobridge Municipal

Weather History for KMBG - October, 2013

Change the Weather History Date:

Friday, October 18, 2013

  Actual Average Record
Temperature  
Mean Temperature 36 °F 46 °F  
Max Temperature 47 °F 59 °F 86 °F (1914)
Min Temperature 25 °F 34 °F 13 °F (1930)
Degree Days  
Heating Degree Days 29 19  
Month to date heating degree days 317 274  
Since 1 July heating degree days 400 494  
Cooling Degree Days 0 0  
Month to date cooling degree days 0 0  
Year to date cooling degree days 700 641  
Moisture  
Dew Point 32 °F    
Average Humidity 73    
Maximum Humidity 92    
Minimum Humidity 53    
Precipitation  
Precipitation 0.01 in 0.06 in 1.14 in (2007)
Month to date precipitation 5.50 0.95  
Year to date precipitation 22.69 16.40  
Snow  
Snow 0.00 in - - ()
Month to date snowfall T  
Since 1 July snowfall T  
Snow Depth 0.00 in    
Sea Level Pressure  
Sea Level Pressure 30.00 in    
Wind  
Wind Speed 8 mph (WNW)    
Max Wind Speed 30 mph    
Max Gust Speed 36 mph    
Visibility 10 miles    
Events Rain    
T = Trace of Precipitation, MM = Missing Value Source: NWS Daily Summary

Daily Weather History Graph

Daily Weather History Graph

Search for Another Location

Airport or City:

Trip Planner

Search our weather history database for the weather conditions in past years. The results will help you decide how hot, cold, wet, or windy it might be!

Date:

Astronomy

Oct. 18, 2013 Rise Set
Actual Time 8:02 AM CDT 6:50 PM CDT
Civil Twilight 7:32 AM CDT 7:20 PM CDT
Nautical Twilight 6:57 AM CDT 7:54 PM CDT
Astronomical Twilight 6:23 AM CDT 8:28 PM CDT
Moon 6:40 PM CDT 7:39 AM CDT
Length of Visible Light 11h 48m
Length of Day
10h 47m
Full, 100% of the Moon is Illuminated
Oct 18
Full
Oct 18
Full
Oct 26
Last Quarter
Nov 3
New
Nov 9
First Quarter

Hourly Weather History & Observations

Time (CDT) Temp. Windchill Dew Point Humidity Pressure Visibility Wind Dir Wind Speed Gust Speed Precip Events Conditions
12:52 AM 28.9 °F - 26.1 °F 89% 30.06 in 10.0 mi Calm Calm - N/A   Clear
1:52 AM 28.9 °F - 27.0 °F 92% 30.06 in 10.0 mi Calm Calm - N/A   Clear
2:52 AM 28.9 °F - 26.1 °F 89% 30.06 in 10.0 mi Calm Calm - N/A   Mostly Cloudy
3:52 AM 28.0 °F - 25.0 °F 88% 30.05 in 10.0 mi Calm Calm - N/A   Partly Cloudy
4:52 AM 28.0 °F - 26.1 °F 92% 30.05 in 10.0 mi Calm Calm - N/A   Clear
5:52 AM 28.9 °F - 25.0 °F 85% 30.05 in 10.0 mi Calm Calm - N/A   Clear
6:52 AM 28.9 °F 25.2 °F 26.1 °F 89% 30.06 in 10.0 mi NNW 3.5 mph - N/A   Clear
7:52 AM 32.0 °F 26.4 °F 28.0 °F 85% 30.06 in 10.0 mi NW 5.8 mph - N/A   Overcast
8:52 AM 34.0 °F 27.2 °F 30.0 °F 85% 30.06 in 10.0 mi NW 8.1 mph - N/A   Overcast
9:52 AM 37.0 °F 28.9 °F 33.1 °F 86% 30.06 in 10.0 mi NW 12.7 mph - N/A   Overcast
10:52 AM 39.0 °F 29.6 °F 34.0 °F 82% 30.07 in 10.0 mi WNW 18.4 mph - N/A   Mostly Cloudy
11:02 AM 39.2 °F 29.8 °F 33.8 °F 81% 30.02 in 10.0 mi NW 18.4 mph - N/A   Mostly Cloudy
11:52 AM 42.1 °F 34.5 °F 34.0 °F 73% 30.06 in 10.0 mi NW 15.0 mph 23.0 mph N/A   Mostly Cloudy
12:08 PM 42.8 °F 35.4 °F 33.8 °F 70% 30.01 in 10.0 mi NW 15.0 mph - N/A   Scattered Clouds
12:52 PM 45.0 °F 38.5 °F 33.1 °F 63% 30.04 in 10.0 mi WNW 13.8 mph - N/A   Overcast
1:52 PM 41.0 °F 33.9 °F 34.0 °F 76% 30.03 in 9.0 mi NNW 12.7 mph 24.2 mph 0.00 in Rain Light Rain
2:01 PM 44.6 °F 37.2 °F 37.4 °F 76% 29.97 in 10.0 mi WNW 17.3 mph 20.7 mph 0.00 in   Overcast
2:52 PM 45.0 °F 38.5 °F 32.0 °F 60% 29.99 in 10.0 mi NW 13.8 mph 21.9 mph 0.00 in   Overcast
3:52 PM 46.0 °F 39.0 °F 30.9 °F 56% 29.98 in 10.0 mi NW 17.3 mph 24.2 mph N/A   Overcast
4:52 PM 46.0 °F 41.0 °F 33.1 °F 61% 29.96 in 10.0 mi WNW 10.4 mph - N/A   Overcast
5:52 PM 42.1 °F 37.7 °F 35.1 °F 76% 29.96 in 10.0 mi West 6.9 mph - 0.00 in   Mostly Cloudy
6:52 PM 41.0 °F 38.0 °F 34.0 °F 76% 29.94 in 10.0 mi West 4.6 mph - N/A   Overcast
7:52 PM 39.0 °F 35.7 °F 33.1 °F 79% 29.94 in 10.0 mi West 4.6 mph - N/A   Mostly Cloudy
8:52 PM 39.9 °F 34.5 °F 33.1 °F 77% 29.92 in 10.0 mi WNW 8.1 mph - N/A   Overcast
9:52 PM 42.1 °F 35.2 °F 34.0 °F 73% 29.90 in 10.0 mi West 12.7 mph - 0.00 in Rain Light Rain
10:52 PM 41.0 °F 35.8 °F 37.0 °F 86% 29.88 in 10.0 mi WNW 8.1 mph - 0.00 in Rain Light Rain
11:52 PM 39.9 °F 36.7 °F 36.0 °F 86% 29.86 in 10.0 mi West 4.6 mph - 0.00 in   Overcast